User: anonymous   Login
Location: Hradec Kralove
(50.2170°N, 15.8330°E)
Time: 07:04:42
(UTC+01:00)
Language:

Tiros 1 despin weight - Orbit

View from above orbital plane
View from above orbital plane
View from above satellite
View from above satellite

Ground track
Ground track

The orbit data is extracted from the following two-line orbital elements,

1   115U 60002D   24062.74401878  .00004626  00000-0  51242-3 0  9993
2   115  48.1624 228.7862 0031049 112.0317 248.3901 14.88495807414236
Epoch (UTC): 02 March 2024 17:51:23
Eccentricity: 0.0031049
inclination: 48.1624°
perigee height: 581 km
apogee height: 624 km
right ascension of ascending node: 228.7862°
argument of perigee: 112.0317°
revolutions per day: 14.88495807
mean anomaly at epoch: 248.3901°
orbit number at epoch: 41423

The dashed part of the orbit path shows where the satellite is in the earth's shadow,  

DLR